Regional Weather Roundup
Issued by NWS Charleston, WV

Home | Current Version | Previous Version | Graphics & Text | Print | Product List | Glossary On
Versions: 1 2 3 4 5 6 7 8 9 10 11 12 13 14 15 16 17 18 19 20 21 22 23 24 25 26 27 28 29 30 31 32 33 34 35 36 37 38 39 40 41 42 43 44 45 46 47 48 49 50
000
ASUS41 KRLX 191210
RWRRLX
West Virginia Regional Weather Roundup
National Weather Service Charleston WV
700 AM EST FRI JAN 19 2018

Note: "fair" indicates few or no clouds below 12,000 feet with no
significant weather and/or obstructions to visibility.

WVZ003-191300-
Northern Panhandle of West Virginia

CITY           SKY/WX    TMP DP  RH WIND       PRES   REMARKS
WHEELING         N/A     21   9  59 SW8       30.13R
$$

WVZ009-191300-
Northwest West Virginia

CITY           SKY/WX    TMP DP  RH WIND       PRES   REMARKS
PARKERSBURG      N/A     23   9  55 S9        30.23R
$$

WVZ006-191300-
Western West Virginia

CITY           SKY/WX    TMP DP  RH WIND       PRES   REMARKS
HUNTINGTON       N/A     21   9  59 S6        30.25R
$$

WVZ015-191300-
West Central West Virginia

CITY           SKY/WX    TMP DP  RH WIND       PRES   REMARKS
CHARLESTON       N/A     16  11  80 CALM      30.25R
$$

WVZ022-031-191300-
North Central West Virginia

CITY           SKY/WX    TMP DP  RH WIND       PRES   REMARKS
CLARKSBURG       N/A     24   8  50 SW10      30.20R
MORGANTOWN       N/A     25   7  46 SW7       30.18R
$$

WVZ025-035-042-045-191300-
Southern West Virginia

CITY           SKY/WX    TMP DP  RH WIND       PRES   REMARKS
BECKLEY          N/A     19   5  54 SW5       30.18R
LOGAN            N/A     21  10  63 CALM      30.23R
BLUEFIELD        N/A     22   1  40 W7        30.17R
LEWISBURG        N/A     24   5  45 CALM      30.19R
$$

WVZ047-191300-
Northern Mountains of West Virginia

CITY           SKY/WX    TMP DP  RH WIND       PRES   REMARKS
ELKINS           N/A     18   4  54 S3        30.19R
$$

WVZ052-191300-
Eastern Panhandle of West Virginia

CITY           SKY/WX    TMP DP  RH WIND       PRES   REMARKS
MARTINSBURG      N/A     35   9  33 W13       30.11R
PETERSBURG       N/A     36   8  31 CALM      30.14R
$$



USA.gov is the U.S. government's official web portal to all federal, state and local government web resources and services.